Temperature
20 20 20 20 20 20 19 19 19 19 19 19 19 19 19 19 19 19 19 19 19 19 19 19 18 18 18 18 18 18 18 18 19 19 19 18 18 18 18 18 18 18 18
20 20 20 20 20 20 19 19 19 19 19 19 19 19 19 19 19 19 19 19 19 19 19 19 18 18 18 18 18 18 18 18 18 19 18 18 18 18 18 18 18 18 18
20 20 20 20 20 20 20 20 19 19 19 19 19 19 19 19 19 19 19 19 19 19 19 19 18 18 18 18 18 18 18 18 18 18 18 18 18 18 18 18 18 18 18
20 20 20 20 20 20 20 20 20 19 19 19 19 19 19 19 19 19 19 19 19 19 19 18 18 18 18 18 18 18 18 18 18 18 18 18 18 18 18 18 18 18 18
20 20 20 20 20 20 20 20 20 19 20 19 19 19 19 19 19 19 19 19 19 19 18 18 18 18 18 18 18 18 18 18 18 18 18 18 18 18 18 18 18 18 18
20 21 21 20 20 20 20 20 20 20 19 19 19 19 19 19 19 19 19 19 19 19 19 19 19 18 18 18 18 18 18 18 18 18 18 18 18 18 18 18 18 18 18
21 21 21 21 20 20 20 20 20 20 19 19 19 19 19 19 19 19 19 19 19 19 19 19 19 19 18 18 18 18 18 18 18 18 18 18 18 18 18 18 18 17 17
21 21 21 21 20 20 20 20 20 20 20 19 19 19 19 19 19 19 19 19 19 19 19 19 19 18 18 18 18 18 18 18 18 18 18 18 18 18 18 18 18 17 17
21 21 21 21 20 20 20 20 20 20 20 19 19 19 19 19 19 19 19 19 19 19 19 19 19 18 18 18 18 18 18 18 18 18 18 18 18 18 18 18 18 17 17
21 21 21 20 20 20 20 20 20 20 20 19 19 19 19 19 19 19 19 19 19 19 19 19 19 18 18 18 18 18 18 18 18 18 18 18 18 18 18 18 17 17 17
22 21 21 21 20 20 20 20 20 20 20 19 19 19 19 19 19 19 19 19 19 19 19 19 19 19 19 18 18 19 18 19 18 18 18 18 18 18 18 17 17 17 17
22 22 21 21 21 20 20 20 20 20 20 19 19 19 19 19 19 19 19 19 19 19 19 19 19 19 19 18 18 19 19 19 18 18 18 18 18 18 18 17 17 17 17
22 22 21 21 21 21 20 20 20 20 20 19 19 19 19 19 19 19 19 19 19 19 19 19 19 19 18 18 18 18 18 18 18 18 18 18 18 18 18 17 17 17 17
22 22 21 21 21 21 20 20 20 20 20 19 19 19 19 19 19 19 19 19 19 19 19 18 18 18 18 18 18 18 18 18 18 18 18 18 18 18 18 18 17 17 17
22 22 21 21 21 21 20 20 20 20 20 20 19 19 19 19 19 19 19 19 19 19 19 18 18 18 18 18 18 18 18 18 18 18 18 18 18 18 18 18 18 17 17
22 22 21 21 21 21 20 20 20 20 20 20 19 19 19 19 19 19 18 19 19 19 18 18 18 18 18 18 18 18 18 18 18 18 18 18 18 18 18 18 18 17 17
22 22 21 21 20 21 20 20 20 20 20 20 19 19 19 19 19 19 19 19 19 18 18 18 18 18 18 18 18 18 18 18 18 18 18 18 18 18 18 18 18 17 17
22 21 21 21 20 20 20 20 20 20 20 20 19 19 19 19 19 19 19 19 19 19 19 19 19 19 19 19 18 19 19 19 18 18 18 18 18 18 18 18 18 17 17
22 21 21 21 21 20 20 20 20 20 20 20 20 19 19 19 19 19 19 19 19 19 19 18 18 18 18 19 19 19 19 19 19 19 18 18 18 18 18 18 18 17 17
22 21 21 21 20 20 20 20 20 20 20 20 20 19 19 19 19 19 19 19 19 19 19 18 18 18 18 19 19 19 19 19 19 19 19 19 18 18 18 18 18 18 17
22 21 21 21 20 20 20 20 20 20 20 20 20 19 19 19 19 19 19 19 19 18 18 18 18 18 18 19 19 19 19 19 19 19 19 19 18 18 18 18 18 17 17
22 21 21 21 20 20 20 20 20 20 20 20 20 19 19 19 19 19 19 19 19 18 18 18 18 18 18 18 18 18 19 19 19 19 19 19 19 18 18 18 18 18 18
22 21 21 21 20 20 20 20 20 20 20 20 19 19 19 19 19 19 19 19 19 18 18 18 18 18 18 18 18 18 18 18 19 19 19 19 19 18 18 18 18 18 17
22 22 21 21 21 20 20 20 20 20 19 19 19 19 19 19 19 19 19 18 18 18 18 18 18 18 18 18 18 18 18 18 18 18 19 19 18 18 18 18 18 18 18
23 22 21 21 20 20 20 20 20 20 19 19 19 19 19 19 19 19 19 18 18 18 18 18 18 18 18 18 18 18 18 18 18 18 18 18 18 18 18 18 18 18 17
23 22 21 21 21 20 20 20 20 19 19 19 19 19 19 19 19 19 18 18 18 18 18 18 18 18 18 18 18 18 18 18 18 18 18 18 18 18 18 18 18 18 17
Wind_Speed
10 11 12 12 11 11 10 10 10 11 12 12 11 11 11 10 10 11 11 11 11 11 11 11 10 9 9 9 9 9 9 8 8 8 9 9 9 9 8 7 7 7 9
12 14 14 12 12 11 10 10 10 11 12 12 11 11 10 10 10 11 11 10 10 11 10 10 9 9 8 8 9 9 8 7 7 7 8 8 8 8 7 6 6 7 9
14 14 14 12 12 11 10 10 10 11 12 12 11 10 10 10 10 10 10 10 10 10 10 9 9 8 8 8 8 9 8 7 6 6 6 6 7 7 7 7 7 8 8
14 13 13 13 12 11 11 12 12 12 13 12 12 11 10 10 10 10 10 10 9 9 9 8 8 8 8 8 8 8 8 7 6 6 5 5 7 8 8 7 7 7 8
14 14 14 13 12 12 13 13 13 14 13 12 12 11 10 10 9 9 9 9 9 9 8 7 7 7 7 8 8 8 7 6 5 5 3 5 7 9 8 7 8 7 7
14 14 14 13 12 12 13 13 14 14 13 12 11 10 10 9 8 8 8 9 9 9 8 7 7 7 7 7 7 7 6 6 5 4 4 7 9 9 8 7 8 7 7
14 14 14 13 12 12 12 13 13 13 12 11 11 10 8 8 8 7 7 8 8 8 7 7 7 7 6 6 7 7 7 6 6 4 6 7 9 10 9 7 8 7 6
13 14 14 14 12 12 12 12 12 12 11 10 10 9 7 7 7 6 6 7 7 7 7 6 6 6 7 7 7 7 7 6 4 4 6 8 10 10 8 6 6 6 6
12 13 11 12 11 11 12 12 11 11 10 10 9 7 6 7 7 7 7 7 7 7 7 6 6 6 6 7 8 8 7 7 4 3 6 9 10 9 7 6 6 6 6
10 10 11 10 10 11 11 11 11 11 9 9 7 6 5 6 7 7 7 7 7 7 7 7 6 6 6 7 8 8 8 6 5 3 6 9 11 9 7 6 6 6 6
9 8 9 9 8 9 10 11 10 10 9 8 6 6 5 5 6 7 7 8 8 8 8 8 7 7 7 7 8 8 7 5 4 4 7 12 12 9 7 7 7 6 6
8 9 7 8 7 7 7 8 8 7 8 6 5 4 4 4 4 6 9 9 8 7 8 8 7 6 6 6 7 8 5 4 4 5 8 13 11 10 8 8 8 7 6
8 8 8 7 6 5 5 5 4 5 6 6 5 3 2 2 3 5 6 6 6 6 5 6 6 5 4 4 3 5 4 2 3 6 10 13 11 10 9 9 8 8 7
9 8 7 7 6 5 4 3 4 4 4 4 4 3 2 1 2 2 1 3 4 3 3 3 2 2 1 2 3 3 3 2 3 6 9 12 11 10 10 10 9 9 8
9 8 7 7 6 4 3 1 3 4 4 4 4 3 1 1 2 2 1 1 1 2 2 1 2 1 1 1 2 1 1 1 2 5 8 12 12 11 10 10 9 9 9
8 8 7 7 7 5 3 1 1 3 3 4 3 4 2 2 2 2 1 1 1 0 1 1 1 1 1 1 2 2 2 3 3 5 6 10 13 12 11 11 10 9 10
9 7 6 7 7 5 3 1 1 2 4 3 3 4 3 3 3 2 2 1 1 1 1 1 1 1 2 2 3 3 3 3 4 5 6 8 10 11 12 12 11 11 10
9 7 4 5 7 5 3 1 1 2 3 3 3 4 3 3 3 2 2 1 2 2 1 1 1 1 1 1 1 2 2 3 4 5 6 6 8 9 10 12 12 11 11
9 8 5 4 5 5 3 2 2 2 2 2 3 3 4 3 2 2 2 1 1 1 0 0 1 1 1 1 2 2 2 2 3 5 5 5 7 8 9 12 12 11 11
9 8 6 5 4 4 3 2 1 1 2 2 2 2 3 3 2 1 2 1 1 1 1 1 0 1 2 2 3 1 2 2 3 3 4 4 5 7 8 9 10 9 10
9 8 6 5 5 3 2 2 3 2 2 2 3 3 3 2 2 1 1 1 1 1 1 0 1 2 2 1 1 2 1 2 3 3 2 2 3 5 7 8 8 8 8
10 8 7 6 5 4 3 2 2 2 2 3 2 3 3 2 1 2 2 1 1 1 1 1 0 1 2 1 1 1 1 1 1 2 3 3 4 3 3 5 6 6 7
9 9 7 6 5 4 3 3 2 2 1 2 3 3 2 2 1 1 1 0 0 1 1 1 1 1 2 2 0 0 1 1 1 1 1 1 2 3 3 4 5 6 7
10 9 7 6 5 4 3 3 3 3 2 2 1 2 2 2 1 1 1 0 1 1 1 1 1 1 1 2 2 1 1 1 1 1 1 1 1 2 2 3 3 5 7
10 10 8 7 5 4 4 3 2 2 2 1 2 2 2 1 1 1 1 1 0 0 1 1 1 2 1 2 2 2 2 1 2 1 2 1 1 1 1 1 1 2 4
10 10 10 8 6 5 5 4 3 2 2 2 1 1 2 1 1 1 2 1 1 1 1 1 1 1 1 2 3 3 2 1 1 1 2 2 1 2 2 2 2 2 3
Wind_Direction
92 100 106 102 100 98 97 99 104 109 109 105 105 106 106 108 110 113 118 118 121 123 123 126 127 127 125 124 121 119 117 116 114 113 115 117 120 121 120 122 128 123 124
98 102 105 102 100 98 96 98 103 109 110 108 106 107 108 111 115 117 119 120 121 122 121 123 127 126 126 129 130 127 126 131 126 125 127 125 124 122 122 120 115 120 118
102 108 106 101 99 95 95 98 104 112 112 109 107 108 109 111 115 118 122 122 122 123 124 124 127 130 132 136 137 138 145 151 149 152 151 145 133 129 127 120 118 125 127
107 109 106 104 98 93 94 101 104 111 113 110 107 109 105 109 112 117 120 123 124 125 128 129 133 137 141 142 142 146 157 167 172 183 185 160 143 137 139 133 131 138 138
105 105 109 108 102 97 97 103 107 110 110 110 110 109 108 108 111 116 122 127 130 134 139 142 142 144 148 149 151 158 167 180 195 210 180 134 127 142 144 145 151 151 146
107 107 114 112 107 104 103 103 106 109 110 111 113 113 111 112 116 121 128 135 141 145 146 148 150 155 159 162 168 176 187 200 217 216 155 133 133 145 149 156 159 159 156
111 113 120 118 113 110 109 109 110 112 113 114 114 113 114 118 119 124 133 138 144 149 153 157 162 167 170 182 191 196 205 218 224 205 133 127 137 149 154 161 162 165 167
112 117 123 123 119 116 115 114 115 116 118 117 116 121 123 124 125 127 133 140 146 151 154 159 169 177 188 201 210 212 219 230 223 180 137 126 140 148 156 162 162 163 167
111 118 126 133 133 131 125 122 123 121 120 120 118 124 132 133 137 135 135 137 142 152 158 165 172 188 199 209 220 222 222 230 244 203 139 127 139 147 154 156 163 161 165
113 119 127 129 132 138 136 134 133 132 132 132 129 139 143 140 144 144 141 142 144 152 161 170 177 187 198 212 220 225 232 238 221 191 127 134 143 148 157 165 170 165 166
112 117 120 125 127 136 137 136 144 146 146 150 149 165 163 160 155 150 136 144 151 159 168 174 177 187 200 213 219 228 237 225 187 141 127 141 149 155 165 174 173 175 180
124 121 118 119 121 125 126 137 153 150 145 149 139 155 175 159 138 135 142 150 154 169 177 182 188 195 206 206 208 217 221 207 161 142 135 148 155 163 173 180 181 184 190
127 119 123 124 120 115 119 130 140 142 146 148 132 139 132 131 127 129 147 156 170 172 174 177 193 204 198 191 197 199 201 203 162 135 147 159 165 173 182 186 188 192 197
120 118 118 111 101 91 96 126 139 134 138 140 138 133 141 117 85 94 118 155 171 168 166 171 183 209 182 200 205 201 199 193 145 133 156 167 172 178 183 188 192 196 198
120 118 113 109 101 91 83 87 125 126 127 120 127 133 129 124 110 99 90 131 166 152 150 146 178 189 172 227 231 210 193 181 149 144 159 176 180 183 187 190 194 201 202
124 121 124 123 115 110 113 101 111 132 126 119 130 136 162 145 108 104 117 124 46 73 137 165 186 178 205 228 239 223 209 193 177 166 168 179 186 188 192 194 196 198 200
125 123 127 129 122 127 140 162 133 128 122 128 134 132 139 135 126 127 135 129 120 199 164 176 227 208 212 224 233 227 216 196 181 180 185 178 183 193 196 199 200 198 202
127 124 130 134 131 134 132 120 99 99 118 135 133 127 120 119 134 145 144 142 176 184 181 186 213 253 251 248 256 247 213 191 181 189 193 186 178 185 193 198 196 202 207
129 129 131 114 121 129 132 130 122 99 107 116 115 125 131 131 136 149 124 134 180 159 174 255 55 322 287 289 267 232 221 200 192 196 190 185 176 173 173 186 194 204 208
133 135 138 133 122 134 141 143 142 114 126 123 116 108 117 133 141 128 139 165 162 92 64 52 336 297 276 269 275 268 235 215 207 184 195 175 162 171 172 176 188 200 205
140 141 143 147 139 142 149 167 164 164 166 143 127 115 117 124 140 146 117 159 147 133 151 281 304 290 269 259 290 310 264 218 176 159 185 178 171 177 169 171 182 186 196
151 151 151 152 147 147 154 169 169 156 160 127 113 118 126 150 175 173 161 200 168 151 175 231 307 297 303 307 311 321 316 323 333 189 184 195 183 172 169 180 177 175 185
153 156 153 145 147 153 170 166 152 138 138 132 148 137 145 156 149 103 140 279 274 187 171 214 219 249 296 311 333 200 266 257 295 273 208 186 163 160 187 191 182 176 190
154 149 137 139 143 152 166 163 167 157 157 160 139 126 150 156 151 142 148 136 336 9 28 296 83 301 291 297 293 249 248 247 240 294 283 226 187 186 203 208 194 179 186
156 150 144 137 142 149 156 160 166 152 145 122 112 121 150 151 159 165 125 139 115 32 347 2 8 332 326 307 309 302 297 276 231 231 264 290 320 255 212 235 212 176 172
154 152 150 145 150 154 156 152 147 143 136 127 135 164 198 168 165 150 125 116 103 46 358 347 313 300 304 316 311 305 303 290 288 264 255 262 249 257 230 227 217 183 160
Height
1487 1485 1487 1488 1489 1489 1490 1490 1492 1493 1496 1498 1500 1502 1504 1505 1507 1508 1510 1512 1513 1515 1517 1518 1520 1522 1523 1525 1526 1527 1529 1531 1532 1534 1535 1537 1538 1539 1540 1541 1542 1543 1544
1489 1488 1489 1490 1490 1490 1489 1489 1490 1493 1496 1499 1501 1503 1505 1507 1508 1510 1512 1513 1515 1516 1517 1519 1521 1523 1524 1525 1527 1528 1530 1532 1533 1534 1536 1537 1538 1540 1541 1542 1543 1543 1544
1491 1491 1491 1491 1491 1489 1488 1487 1488 1492 1496 1499 1502 1504 1506 1508 1509 1511 1513 1514 1516 1517 1519 1520 1522 1523 1525 1526 1527 1529 1531 1532 1534 1535 1536 1538 1539 1540 1541 1542 1543 1544 1545
1493 1494 1494 1493 1492 1490 1487 1486 1488 1492 1497 1500 1503 1506 1508 1509 1511 1512 1514 1515 1517 1518 1520 1521 1523 1524 1525 1527 1528 1530 1531 1533 1534 1535 1537 1538 1539 1540 1541 1542 1543 1544 1545
1496 1496 1496 1495 1494 1493 1490 1489 1491 1495 1499 1503 1505 1507 1509 1510 1512 1513 1515 1516 1518 1519 1520 1522 1523 1524 1526 1527 1529 1530 1531 1533 1534 1536 1537 1538 1539 1540 1541 1542 1543 1544 1545
1498 1498 1498 1498 1497 1497 1496 1496 1497 1499 1503 1505 1507 1509 1510 1512 1513 1514 1516 1517 1518 1520 1521 1522 1523 1525 1526 1528 1529 1530 1532 1533 1534 1536 1537 1538 1539 1540 1541 1542 1543 1544 1545
1500 1500 1500 1500 1500 1500 1501 1501 1502 1504 1506 1507 1509 1510 1512 1513 1514 1515 1516 1517 1518 1520 1521 1522 1524 1525 1527 1528 1529 1530 1532 1533 1535 1536 1537 1538 1539 1540 1541 1542 1543 1544 1545
1502 1502 1503 1503 1503 1503 1504 1505 1506 1507 1508 1510 1511 1512 1513 1514 1514 1515 1516 1517 1519 1520 1521 1523 1524 1525 1527 1528 1529 1530 1532 1533 1534 1536 1537 1538 1539 1540 1541 1542 1543 1543 1545
1504 1504 1505 1506 1506 1507 1507 1508 1509 1510 1511 1512 1512 1513 1513 1514 1514 1515 1516 1517 1519 1520 1521 1523 1524 1525 1526 1527 1528 1530 1531 1532 1534 1535 1536 1537 1538 1539 1540 1541 1542 1543 1544
1505 1506 1507 1508 1508 1509 1510 1511 1512 1512 1513 1514 1514 1515 1514 1514 1514 1515 1516 1517 1519 1520 1522 1523 1524 1525 1526 1527 1528 1530 1531 1532 1533 1535 1536 1536 1538 1538 1539 1540 1541 1542 1543
1507 1508 1509 1510 1511 1511 1512 1513 1514 1515 1515 1516 1516 1516 1516 1515 1515 1516 1517 1518 1520 1521 1522 1523 1524 1525 1526 1528 1529 1530 1531 1531 1533 1534 1535 1536 1537 1537 1538 1539 1540 1541 1542
1508 1509 1510 1511 1512 1513 1514 1515 1515 1516 1517 1518 1517 1517 1517 1517 1517 1518 1519 1520 1521 1522 1523 1524 1524 1525 1527 1528 1529 1530 1530 1531 1532 1533 1534 1535 1536 1537 1537 1538 1539 1540 1541
1508 1510 1511 1512 1513 1514 1515 1516 1517 1518 1518 1519 1519 1519 1519 1519 1520 1520 1521 1521 1522 1523 1523 1524 1525 1526 1526 1528 1528 1530 1531 1531 1532 1532 1533 1534 1535 1536 1536 1537 1538 1539 1539
1509 1511 1512 1513 1514 1515 1516 1517 1518 1519 1519 1520 1520 1520 1521 1521 1522 1522 1522 1523 1523 1524 1524 1525 1526 1526 1527 1528 1529 1530 1531 1532 1532 1532 1533 1534 1534 1535 1535 1536 1536 1537 1538
1510 1511 1512 1513 1514 1515 1516 1517 1519 1519 1520 1521 1521 1521 1522 1523 1523 1523 1523 1524 1525 1525 1526 1526 1526 1527 1527 1528 1529 1530 1531 1531 1532 1532 1532 1533 1533 1533 1534 1534 1535 1535 1536
1510 1512 1513 1514 1514 1515 1516 1518 1519 1520 1520 1521 1521 1522 1523 1523 1524 1524 1525 1525 1526 1526 1527 1527 1527 1527 1528 1528 1529 1530 1530 1531 1531 1532 1532 1532 1532 1532 1533 1533 1533 1534 1534
1510 1512 1513 1514 1515 1516 1517 1518 1519 1520 1521 1521 1522 1523 1523 1524 1524 1525 1525 1526 1526 1527 1527 1527 1527 1528 1528 1529 1529 1529 1530 1530 1530 1531 1531 1531 1531 1531 1532 1532 1532 1532 1533
1510 1512 1513 1515 1515 1516 1517 1518 1519 1520 1521 1522 1522 1523 1523 1524 1524 1525 1525 1526 1526 1527 1527 1528 1527 1528 1528 1528 1528 1529 1529 1530 1530 1530 1530 1531 1530 1530 1530 1530 1531 1531 1531
1510 1511 1513 1515 1515 1516 1517 1518 1519 1520 1521 1522 1522 1523 1523 1524 1524 1525 1525 1526 1526 1527 1527 1528 1528 1528 1528 1528 1528 1528 1528 1529 1529 1529 1530 1530 1530 1529 1529 1529 1529 1530 1530
1509 1511 1512 1514 1515 1516 1517 1518 1519 1520 1521 1522 1522 1523 1523 1524 1524 1525 1525 1526 1526 1526 1527 1527 1527 1527 1527 1527 1527 1528 1528 1528 1528 1528 1528 1529 1529 1529 1528 1528 1528 1528 1528
1509 1510 1511 1513 1514 1515 1516 1517 1518 1519 1521 1521 1522 1522 1522 1523 1524 1525 1525 1525 1525 1526 1526 1526 1526 1526 1527 1527 1527 1527 1527 1527 1527 1527 1527 1527 1527 1527 1528 1528 1527 1527 1527
1508 1509 1510 1512 1513 1514 1515 1516 1517 1519 1520 1521 1522 1522 1522 1523 1524 1525 1525 1525 1525 1525 1525 1526 1525 1525 1526 1526 1527 1526 1526 1527 1526 1526 1526 1526 1526 1526 1526 1526 1526 1526 1527
1507 1508 1510 1511 1512 1513 1514 1516 1517 1518 1520 1521 1522 1522 1522 1523 1524 1524 1524 1524 1525 1525 1525 1525 1525 1525 1525 1526 1526 1527 1526 1526 1525 1526 1526 1526 1526 1525 1525 1526 1525 1525 1525
1506 1507 1508 1510 1511 1512 1514 1515 1517 1518 1519 1520 1521 1522 1522 1523 1523 1523 1523 1523 1524 1524 1524 1524 1524 1524 1524 1525 1525 1525 1526 1525 1525 1525 1525 1525 1525 1525 1525 1524 1524 1524 1524
1504 1506 1507 1509 1510 1512 1513 1515 1516 1518 1519 1520 1521 1521 1522 1522 1522 1522 1522 1523 1523 1523 1523 1523 1523 1523 1523 1524 1524 1524 1524 1524 1524 1524 1524 1524 1524 1524 1524 1523 1523 1522 1522
1503 1505 1506 1508 1509 1511 1513 1514 1515 1517 1518 1519 1520 1521 1521 1522 1522 1522 1522 1522 1522 1522 1522 1522 1522 1522 1522 1523 1523 1523 1523 1523 1522 1522 1522 1522 1522 1522 1522 1521 1521 1521 1520